Skip Page Navigation
NASA JPL Caltech
NASA Logo - Jet Propulsion Laboratory + View the NASA Portal
+ Center for Near-Earth Object Studies
JPL Home Earth Solar System Stars & Galaxies Technology
JPL Solar System Dynamics
BODIES ORBITS EPHEMERIDES TOOLS PHYSICAL DATA DISCOVERY FAQ SITE MAP
IMPORTANT: The SSD Announcement email list is now available. Major changes are coming in the near future, including possible hostname and/or URL changes. To be notified of such changes, subscribe to this email list.

Please visit this page for more details.


JPL Small-Body Database Browser
Search: [ help ]  
91421 (1999 NA65)
Classification: Main-belt Asteroid          SPK-ID: 2091421
Ephemeris | Orbit Diagram | Orbital Elements | Mission Design | Physical Parameters | Discovery Circumstances ]

[ show orbit diagram ]
Orbital Elements at Epoch 2459000.5 (2020-May-31.0) TDB
Reference: JPL 24 (heliocentric ecliptic J2000)
 Element Value Uncertainty (1-sigma)   Units 
e .1858507570593047 4.1706e-08  
a 2.626099109118968 1.4995e-08 au
q 2.138036601576442 1.0855e-07 au
i 14.81580977399433 4.5553e-06 deg
node 124.7410208398494 1.8113e-05 deg
peri 296.7004495357894 2.2444e-05 deg
M 241.8084914925599 1.5108e-05 deg
tp 2459510.827380800256
(2021-Oct-23.32738080)
6.7205e-05 TDB
period 1554.408260019181
4.26
1.3314e-05
3.645e-08
d
yr
n .2315993868918051 1.9837e-09 deg/d
Q 3.114161616661494 1.7782e-08 au
  Orbit Determination Parameters
   # obs. used (total)      902  
   data-arc span      7311 days (20.02 yr)  
   first obs. used      1999-07-14  
   last obs. used      2019-07-20  
   planetary ephem.      DE431  
   SB-pert. ephem.      SB431-N16  
   condition code      0  
   norm. resid. RMS      .55663  
   source      ORB  
   producer      Otto Matic  
   solution date      2020-Feb-23 22:29:51  

Additional Information
 Earth MOID = 1.19593 au 
 Jupiter MOID = 2.27429 au 
 T_jup = 3.331 
[ show covariance matrix ]

Ephemeris | Orbit Diagram | Orbital Elements | Mission Design | Physical Parameters | Discovery Circumstances ]

Physical Parameter Table
Parameter Symbol Value Units Sigma Reference Notes
absolute magnitude H 14.6   n/a MPO385379  
diameter diameter 3.777 km 0.973 urn:nasa:pds:neowise_diameters_albedos::2.0[mainbelt] (http://adsabs.harvard.edu/abs/2011ApJ...741...68M)  
geometric albedo albedo 0.196   0.042 urn:nasa:pds:neowise_diameters_albedos::2.0[mainbelt] (http://adsabs.harvard.edu/abs/2011ApJ...741...68M)  

91421 (1999 NA65)          Discovered 1999-Jul-14 by LINEAR at Socorro
Reference: 20041028/Numbers.arcLast Updated: 2004-10-29

Alternate Designations
 1999 NA65 = 2000 UX75 
Ephemeris | Orbit Diagram | Orbital Elements | Mission Design | Physical Parameters | Discovery Circumstances ]
ABOUT SSD CREDITS/AWARDS PRIVACY/COPYRIGHT GLOSSARY LINKS
FirstGov 2020-Mar-28 22:16 UT
(server date/time)  
NASA Home Page
Site Manager:   Ryan S. Park
Webmaster  Alan B. Chamberlin